CW0069 Weather Reports


Display with metric or nautical units.
time (UTC)temp
F
wind
direction
speed
MPH
gust
MPH
rain 1hr
in
rain 24hr
in
rain mn
in
humidity
%
barometer
mb
20260901133903 83 116 1.0 3.0 0.00 0.00 0.00 58 1015.0
20260901133404 83 116 1.0 3.0 0.00 0.00 0.00 59 1015.0
20260901132904 82 116 2.0 3.0 0.00 0.00 0.00 59 1015.0
20260901132404 82 117 1.0 3.0 0.00 0.00 0.00 60 1015.0
20260901131903 81 116 1.0 2.0 0.00 0.00 0.00 60 1015.0
20260901131404 97 117 0.0 0.0 0.00 0.00 0.00 26 1014.8
20260901130404 97 117 0.0 1.0 0.00 0.00 0.00 26 1014.8
20260901125404 97 117 0.0 2.0 0.00 0.00 0.00 26 1014.6
20260901124904 97 117 0.0 0.0 0.00 0.00 0.00 26 1014.5
20260901123904 97 117 0.0 0.0 0.00 0.00 0.00 26 1014.4
20260901123403 97 117 0.0 0.0 0.00 0.00 0.00 26 1014.4
20260901122903 97 116 0.0 0.0 0.00 0.00 0.00 26 1014.4
20260901122404 97 116 0.0 2.0 0.00 0.00 0.00 26 1014.4
20260901121904 97 116 1.0 3.0 0.00 0.00 0.00 26 1014.4
20260901120904 97 117 0.0 1.0 0.00 0.00 0.00 26 1014.0
20260901120404 97 117 0.0 1.0 0.00 0.00 0.00 26 1014.1
20260901115903 97 117 0.0 1.0 0.00 0.00 0.00 26 1014.1
20260901114903 97 117 1.0 2.0 0.00 0.00 0.00 26 1013.9
20260901114403 97 117 0.0 0.0 0.00 0.00 0.00 26 1013.8
20260901113904 97 117 0.0 0.0 0.00 0.00 0.00 26 1013.7
20260901112904 97 117 0.0 2.0 0.00 0.00 0.00 26 1013.6
20260901112404 97 117 0.0 2.0 0.00 0.00 0.00 26 1013.7
20260901111904 97 117 1.0 3.0 0.00 0.00 0.00 26 1013.6
20260901111404 97 117 1.0 3.0 0.00 0.00 0.00 26 1013.7
20260901110904 97 117 0.0 3.0 0.00 0.00 0.00 26 1013.7
20260901110404 97 117 1.0 3.0 0.00 0.00 0.00 26 1013.6
20260901105904 97 117 1.0 3.0 0.00 0.00 0.00 26 1013.6
20260901105404 97 117 1.0 2.0 0.00 0.00 0.00 26 1013.5
20260901104904 97 117 1.0 3.0 0.00 0.00 0.00 26 1013.5
20260901103904 97 117 0.0 2.0 0.00 0.00 0.00 26 1013.5
20260901103403 97 117 1.0 2.0 0.00 0.00 0.00 26 1013.5
20260901102904 97 115 1.0 3.0 0.00 0.00 0.00 26 1013.5
20260901102404 97 112 1.0 2.0 0.00 0.00 0.00 26 1013.5
20260901101904 97 112 1.0 3.0 0.00 0.00 0.00 26 1013.5
20260901101404 97 112 0.0 3.0 0.00 0.00 0.00 26 1013.5
20260901100903 97 112 0.0 2.0 0.00 0.00 0.00 26 1013.5
20260901095904 97 117 1.0 3.0 0.00 0.00 0.00 26 1013.5
20260901095403 97 117 2.0 3.0 0.00 0.00 0.00 26 1013.5
20260901094903 97 116 2.0 6.0 0.00 0.00 0.00 26 1013.6
20260901094404 97 106 2.0 6.0 0.00 0.00 0.00 26 1013.6
20260901093903 97 111 3.0 7.0 0.00 0.00 0.00 26 1013.7
20260901093404 97 119 2.0 7.0 0.00 0.00 0.00 26 1013.7
20260901091904 97 104 1.0 3.0 0.00 0.00 0.00 26 1013.7
20260901091404 97 104 1.0 3.0 0.00 0.00 0.00 26 1013.7
20260901090904 97 104 2.0 6.0 0.00 0.00 0.00 26 1013.7
20260901090404 97 98 2.0 6.0 0.00 0.00 0.00 26 1013.6
20260901085903 97 96 2.0 3.0 0.00 0.00 0.00 26 1013.5
20260901085404 97 100 2.0 6.0 0.00 0.00 0.00 26 1013.6
20260901084903 97 103 1.0 6.0 0.00 0.00 0.00 26 1013.5
20260901084404 97 98 2.0 3.0 0.00 0.00 0.00 26 1013.5
20260901083904 97 97 2.0 3.0 0.00 0.00 0.00 26 1013.4
20260901083404 97 94 2.0 6.0 0.00 0.00 0.00 26 1013.3
20260901081904 97 101 2.0 6.0 0.00 0.00 0.00 26 1013.4
20260901081404 97 101 1.0 3.0 0.00 0.00 0.00 26 1013.4
20260901080903 97 100 3.0 3.0 0.00 0.00 0.00 26 1013.4
20260901080404 97 100 2.0 6.0 0.00 0.00 0.00 26 1013.3
20260901074904 97 109 2.0 3.0 0.00 0.00 0.00 26 1013.3
20260901074403 97 111 1.0 3.0 0.00 0.00 0.00 26 1013.3
20260901073904 97 111 2.0 3.0 0.00 0.00 0.00 26 1013.3
20260901072903 97 103 3.0 6.0 0.00 0.00 0.00 26 1013.2
20260901072404 97 114 2.0 6.0 0.00 0.00 0.00 26 1013.2
20260901071903 97 109 1.0 6.0 0.00 0.00 0.00 26 1013.2
20260901071404 97 111 2.0 6.0 0.00 0.00 0.00 26 1013.1
20260901070903 97 105 2.0 6.0 0.00 0.00 0.00 26 1013.1
20260901065903 97 92 1.0 6.0 0.00 0.00 0.00 26 1013.2
20260901064904 97 85 2.0 3.0 0.00 0.00 0.00 26 1013.0
20260901064403 97 81 1.0 3.0 0.00 0.00 0.00 26 1013.1
20260901063903 97 82 1.0 3.0 0.00 0.00 0.00 26 1013.1
20260901063404 97 82 0.0 3.0 0.00 0.00 0.00 26 1013.1
20260901062904 97 82 1.0 3.0 0.00 0.00 0.00 26 1013.0
20260901062404 97 82 1.0 5.0 0.00 0.00 0.00 26 1012.9
20260901061904 97 84 1.0 5.0 0.00 0.00 0.00 26 1012.9
20260901061403 97 85 2.0 5.0 0.00 0.00 0.00 26 1012.9
20260901060904 97 79 2.0 5.0 0.00 0.00 0.00 26 1012.8
20260901060404 97 83 2.0 5.0 0.00 0.00 0.00 26 1012.8
20260901055903 97 62 2.0 6.0 0.00 0.00 0.00 26 1012.7
20260901055405 97 80 3.0 8.0 0.00 0.00 0.00 26 1012.7
20260901054905 97 62 3.0 5.0 0.00 0.00 0.00 26 1012.6
20260901053905 97 78 2.0 3.0 0.00 0.00 0.00 26 1012.6
20260901053404 97 74 2.0 6.0 0.00 0.00 0.00 26 1012.6
20260901052905 97 80 2.0 3.0 0.00 0.00 0.00 26 1012.4
20260901052404 97 80 2.0 7.0 0.00 0.00 0.00 26 1012.4
20260901051905 97 80 2.0 7.0 0.00 0.00 0.00 26 1012.4
20260901051405 97 81 3.0 7.0 0.00 0.00 0.00 26 1012.5
20260901050905 97 80 3.0 6.0 0.00 0.00 0.00 26 1012.4
20260901045905 97 72 2.0 5.0 0.00 0.00 0.00 26 1012.3
20260901045405 97 76 3.0 7.0 0.00 0.00 0.00 26 1012.3
20260901044904 97 75 3.0 6.0 0.00 0.00 0.00 26 1012.3
20260901044404 97 72 2.0 5.0 0.00 0.00 0.00 26 1012.2
20260901043905 97 73 2.0 6.0 0.00 0.00 0.00 26 1012.1
20260901043404 97 79 2.0 6.0 0.00 0.00 0.00 26 1012.2
20260901042905 97 73 3.0 5.0 0.00 0.00 0.00 26 1012.2
20260901042405 97 57 2.0 5.0 0.00 0.00 0.00 26 1012.1
20260901041905 97 71 2.0 5.0 0.00 0.00 0.00 26 1012.1
20260901041405 97 74 2.0 3.0 0.00 0.00 0.00 26 1012.2
20260901040404 97 74 1.0 3.0 0.00 0.00 0.00 26 1012.1
20260901035905 97 74 1.0 3.0 0.00 0.00 0.00 26 1012.1
20260901035404 97 42 2.0 7.0 0.00 0.00 0.00 26 1012.2
20260901034405 97 111 1.0 2.0 0.00 0.00 0.00 26 1012.0
20260901033905 97 112 0.0 2.0 0.00 0.00 0.00 26 1012.0
20260901033405 97 111 1.0 3.0 0.00 0.00 0.00 26 1012.0
20260901032905 97 112 1.0 2.0 0.00 0.00 0.00 26 1012.0
20260901032405 97 112 1.0 2.0 0.00 0.00 0.00 26 1012.0
20260901031905 97 112 1.0 3.0 0.00 0.00 0.00 26 1012.0
20260901031405 97 112 2.0 3.0 0.00 0.00 0.00 26 1012.0
20260901030404 97 113 0.0 1.0 0.00 0.00 0.00 26 1011.9
20260901025905 97 113 0.0 0.0 0.00 0.00 0.00 26 1011.8
20260901025405 97 113 0.0 0.0 0.00 0.00 0.00 26 1011.7
20260901024905 97 113 0.0 0.0 0.00 0.00 0.00 26 1011.6
20260901023905 97 113 1.0 2.0 0.00 0.00 0.00 26 1011.5
20260901022905 97 113 0.0 1.0 0.00 0.00 0.00 26 1011.4
20260901022405 97 113 0.0 2.0 0.00 0.00 0.00 26 1011.3
20260901021404 97 113 1.0 2.0 0.00 0.00 0.00 26 1011.2
20260901020405 97 113 1.0 3.0 0.00 0.00 0.00 26 1011.2
20260901015404 97 113 2.0 3.0 0.00 0.00 0.00 26 1011.1
20260901014405 97 114 2.0 3.0 0.00 0.00 0.00 26 1011.0
20260901013905 97 114 1.0 3.0 0.00 0.00 0.00 26 1011.1
20260901012904 97 114 1.0 3.0 0.00 0.00 0.00 26 1011.0
20260901012405 97 114 2.0 3.0 0.00 0.00 0.00 26 1010.9
20260901011905 97 114 2.0 3.0 0.00 0.00 0.00 26 1011.0
20260901010905 97 107 2.0 3.0 0.00 0.00 0.00 26 1010.8
20260901010405 97 103 2.0 6.0 0.00 0.00 0.00 26 1010.7
20260901005905 97 104 2.0 3.0 0.00 0.00 0.00 26 1010.7
20260901005404 97 103 2.0 3.0 0.00 0.00 0.00 26 1010.8
20260901004905 97 103 1.0 3.0 0.00 0.00 0.00 26 1010.7
20260901004404 97 104 2.0 3.0 0.00 0.00 0.00 26 1010.7
20260901003905 97 107 2.0 3.0 0.00 0.00 0.00 26 1010.7
20260901003404 97 99 2.0 3.0 0.00 0.00 0.00 26 1010.7
20260901002905 97 93 3.0 8.0 0.00 0.00 0.00 26 1010.7
20260901002405 97 104 3.0 8.0 0.00 0.00 0.00 26 1010.6
20260901001904 97 101 3.0 6.0 0.00 0.00 0.00 26 1010.6
20260901000904 97 100 3.0 8.0 0.00 0.00 0.00 26 1010.7
20260901000405 98 95 3.0 7.0 0.00 0.00 0.00 26 1010.7
20260831235905 98 83 2.0 7.0 0.00 0.00 0.00 25 1010.7
20260831235404 98 101 2.0 3.0 0.00 0.00 0.00 25 1010.7
20260831234904 99 86 2.0 8.0 0.00 0.00 0.00 24 1010.7
20260831234405 99 90 5.0 10.0 0.00 0.00 0.00 24 1010.7
20260831233405 100 104 5.0 10.0 0.00 0.00 0.00 23 1010.7
20260831232905 100 95 5.0 12.0 0.00 0.00 0.00 23 1010.6
20260831232404 100 110 7.0 13.0 0.00 0.00 0.00 23 1010.6
20260831230404 100 207 2.0 9.0 0.00 0.00 0.00 22 1010.5
20260831225404 101 152 4.0 8.0 0.00 0.00 0.00 23 1010.6
20260831224904 101 120 7.0 17.0 0.00 0.00 0.00 22 1010.7
20260831224405 101 149 5.0 9.0 0.00 0.00 0.00 23 1010.8
20260831223404 101 124 7.0 12.0 0.00 0.00 0.00 22 1010.8
20260831222904 101 133 6.0 12.0 0.00 0.00 0.00 23 1010.8
20260831222404 101 81 3.0 7.0 0.00 0.00 0.00 23 1010.9
20260831221904 101 97 4.0 10.0 0.00 0.00 0.00 23 1011.0
20260831221405 101 104 4.0 8.0 0.00 0.00 0.00 22 1010.9
20260831220904 102 95 4.0 13.0 0.00 0.00 0.00 21 1010.9
20260831215904 103 125 7.0 12.0 0.00 0.00 0.00 20 1011.0
20260831215405 104 96 4.0 10.0 0.00 0.00 0.00 22 1011.0
20260831214904 104 84 4.0 7.0 0.00 0.00 0.00 22 1011.1
20260831214405 104 83 2.0 7.0 0.00 0.00 0.00 21 1011.2
20260831213905 104 122 5.0 9.0 0.00 0.00 0.00 19 1011.3
20260831213404 104 129 3.0 9.0 0.00 0.00 0.00 21 1011.2
20260831212404 104 34 2.0 5.0 0.00 0.00 0.00 20 1011.2
20260831211904 104 148 4.0 12.0 0.00 0.00 0.00 21 1011.4
20260831211404 103 138 7.0 13.0 0.00 0.00 0.00 20 1011.4
20260831210905 103 85 2.0 8.0 0.00 0.00 0.00 20 1011.4
20260831210405 103 57 3.0 8.0 0.00 0.00 0.00 20 1011.5
20260831205405 103 166 7.0 13.0 0.00 0.00 0.00 20 1011.7
20260831204904 103 141 5.0 13.0 0.00 0.00 0.00 19 1011.7
20260831204405 103 124 6.0 10.0 0.00 0.00 0.00 21 1011.8
20260831203905 103 193 7.0 16.0 0.00 0.00 0.00 19 1012.0
20260831203405 103 73 5.0 12.0 0.00 0.00 0.00 21 1012.0
20260831202904 104 106 3.0 10.0 0.00 0.00 0.00 20 1012.1
20260831201905 104 160 5.0 10.0 0.00 0.00 0.00 20 1012.2
20260831200906 104 127 5.0 14.0 0.00 0.00 0.00 21 1012.3
20260831200404 104 115 5.0 10.0 0.00 0.00 0.00 21 1012.4
20260831195404 104 108 8.0 12.0 0.00 0.00 0.00 22 1012.6
20260831194905 104 125 4.0 15.0 0.00 0.00 0.00 21 1012.7
20260831193904 103 184 5.0 12.0 0.00 0.00 0.00 21 1012.7
20260831193405 104 150 6.0 10.0 0.00 0.00 0.00 22 1012.9
20260831192405 104 113 5.0 12.0 0.00 0.00 0.00 23 1013.0
20260831191905 103 113 7.0 13.0 0.00 0.00 0.00 24 1013.0
20260831191405 103 105 6.0 12.0 0.00 0.00 0.00 24 1013.2
20260831190905 102 124 6.0 12.0 0.00 0.00 0.00 24 1013.2
20260831190405 102 135 5.0 12.0 0.00 0.00 0.00 25 1013.2
20260831185904 101 103 5.0 12.0 0.00 0.00 0.00 27 1013.3
20260831185404 101 90 6.0 10.0 0.00 0.00 0.00 25 1013.3
20260831184405 102 118 8.0 14.0 0.00 0.00 0.00 28 1013.4
20260831183904 101 120 3.0 10.0 0.00 0.00 0.00 28 1013.4
20260831183405 101 105 6.0 12.0 0.00 0.00 0.00 28 1013.5
20260831182904 101 159 6.0 10.0 0.00 0.00 0.00 28 1013.6
20260831181905 101 71 2.0 7.0 0.00 0.00 0.00 28 1013.7
20260831181404 100 109 7.0 13.0 0.00 0.00 0.00 29 1013.8
20260831180905 100 66 5.0 10.0 0.00 0.00 0.00 28 1013.9
20260831180404 101 43 5.0 12.0 0.00 0.00 0.00 28 1014.1
20260831175405 100 143 7.0 14.0 0.00 0.00 0.00 29 1014.2
20260831174404 100 108 6.0 12.0 0.00 0.00 0.00 30 1014.4
20260831173404 99 183 3.0 8.0 0.00 0.00 0.00 32 1014.4
20260831172905 98 187 3.0 7.0 0.00 0.00 0.00 33 1014.5
20260831172404 98 120 3.0 8.0 0.00 0.00 0.00 32 1014.6
20260831171905 98 150 3.0 7.0 0.00 0.00 0.00 34 1014.6
20260831171405 97 196 3.0 6.0 0.00 0.00 0.00 34 1014.7
20260831170904 97 163 5.0 12.0 0.00 0.00 0.00 33 1014.7
20260831170405 97 144 3.0 7.0 0.00 0.00 0.00 34 1014.8
20260831165905 97 177 5.0 7.0 0.00 0.00 0.00 33 1014.8
20260831165404 96 165 6.0 10.0 0.00 0.00 0.00 34 1014.9
20260831164905 96 131 6.0 10.0 0.00 0.00 0.00 34 1014.8
20260831164404 96 119 6.0 10.0 0.00 0.00 0.00 34 1014.8
20260831163904 95 143 6.0 12.0 0.00 0.00 0.00 35 1014.9
20260831163404 95 176 4.0 7.0 0.00 0.00 0.00 36 1014.9
20260831162904 94 121 4.0 10.0 0.00 0.00 0.00 37 1014.9
20260831162405 94 142 5.0 10.0 0.00 0.00 0.00 37 1014.9
20260831161904 94 167 6.0 12.0 0.00 0.00 0.00 36 1015.0
20260831161404 93 185 6.0 12.0 0.00 0.00 0.00 36 1015.0
20260831160405 93 182 6.0 9.0 0.00 0.00 0.00 39 1015.1
20260831155904 92 162 3.0 7.0 0.00 0.00 0.00 40 1015.1
20260831154904 91 153 4.0 9.0 0.00 0.00 0.00 40 1015.2
20260831153904 91 161 5.0 10.0 0.00 0.00 0.00 41 1015.0
20260831153404 90 159 6.0 12.0 0.00 0.00 0.00 41 1015.0
20260831152905 90 137 5.0 9.0 0.00 0.00 0.00 42 1015.0
20260831152404 90 149 5.0 10.0 0.00 0.00 0.00 43 1015.0
20260831151904 89 180 4.0 10.0 0.00 0.00 0.00 47 1015.0
20260831150904 88 178 2.0 3.0 0.00 0.00 0.00 50 1014.9
20260831150405 88 178 4.0 6.0 0.00 0.00 0.00 50 1014.9
20260831145904 88 168 5.0 7.0 0.00 0.00 0.00 50 1014.9
20260831145404 87 177 4.0 7.0 0.00 0.00 0.00 50 1014.9
20260831144904 87 194 5.0 9.0 0.00 0.00 0.00 51 1014.7
20260831144405 87 176 3.0 9.0 0.00 0.00 0.00 51 1014.8
20260831143905 87 180 4.0 9.0 0.00 0.00 0.00 52 1014.8
20260831143404 86 171 5.0 10.0 0.00 0.00 0.00 52 1014.8
20260831142404 86 183 4.0 7.0 0.00 0.00 0.00 54 1014.7
20260831141904 85 165 5.0 9.0 0.00 0.00 0.00 54 1014.7
20260831141405 85 158 5.0 9.0 0.00 0.00 0.00 54 1014.7
20260831140904 85 128 3.0 9.0 0.00 0.00 0.00 54 1014.7
20260831140404 84 153 6.0 9.0 0.00 0.00 0.00 55 1014.8
20260831135905 84 165 3.0 7.0 0.00 0.00 0.00 56 1014.7
20260831135404 84 123 3.0 7.0 0.00 0.00 0.00 56 1014.7
20260831134904 83 116 3.0 7.0 0.00 0.00 0.00 58 1014.6
20260831134405 83 115 3.0 6.0 0.00 0.00 0.00 57 1014.7